When you browse on this site, cookies collect data to enhance your experience and personalize the content and advertising you see.
Visit our Privacy Policy to learn more. By continuing to use the site, you agree to this use of cookies and data.

Meteo pe oră la Al Hilla

Astăzi, 6 August, Joi

Timp Temperatura Precipitaţii Vânt Presiune Umiditate
00:00 +32°C° 0 mm 1 m/s 744 mmHg 23%
01:00 +32°C° 0 mm 1 m/s 744 mmHg 22%
02:00 +32°C° 0 mm 2 m/s 743 mmHg 22%
03:00 +32°C° 0 mm 2 m/s 743 mmHg 22%
04:00 +32°C° 0 mm 2 m/s 744 mmHg 22%
05:00 +34°C° 0 mm 3 m/s 744 mmHg 21%
06:00 +34°C° 0 mm 3 m/s 745 mmHg 21%
07:00 +36°C° 0 mm 4 m/s 745 mmHg 21%
08:00 +40°C° 0 mm 5 m/s 745 mmHg 21%
09:00 +42°C° 0 mm 6 m/s 745 mmHg 19%
10:00 +45°C° 0 mm 6 m/s 745 mmHg 17%
11:00 +46°C° 0 mm 6 m/s 745 mmHg 16%
12:00 +48°C° 0 mm 6 m/s 745 mmHg 14%
13:00 +49°C° 0 mm 6 m/s 745 mmHg 13%
14:00 +50°C° 0 mm 7 m/s 744 mmHg 12%
15:00 +51°C° 0 mm 7 m/s 743 mmHg 11%
16:00 +50°C° 0 mm 7 m/s 743 mmHg 12%
17:00 +50°C° 0 mm 7 m/s 743 mmHg 12%
18:00 +48°C° 0 mm 6 m/s 743 mmHg 12%
19:00 +46°C° 0 mm 6 m/s 743 mmHg 13%
20:00 +43°C° 0 mm 5 m/s 744 mmHg 15%
21:00 +41°C° 0 mm 5 m/s 744 mmHg 16%
22:00 +41°C° 0 mm 5 m/s 744 mmHg 17%
23:00 +41°C° 0 mm 6 m/s 744 mmHg 18%

Mâine, 7 August, Vineri

Timp Temperatura Precipitaţii Vânt Presiune Umiditate
00:00 +40°C° 0 mm 6 m/s 744 mmHg 19%
01:00 +40°C° 0 mm 6 m/s 744 mmHg 20%
02:00 +39°C° 0 mm 6 m/s 743 mmHg 20%
03:00 +38°C° 0 mm 6 m/s 743 mmHg 21%
04:00 +38°C° 0 mm 6 m/s 744 mmHg 21%
05:00 +36°C° 0 mm 6 m/s 744 mmHg 22%
06:00 +36°C° 0 mm 6 m/s 745 mmHg 22%
07:00 +39°C° 0 mm 7 m/s 745 mmHg 19%
08:00 +43°C° 0 mm 8 m/s 745 mmHg 16%
09:00 +47°C° 0 mm 9 m/s 745 mmHg 13%
10:00 +49°C° 0 mm 9 m/s 745 mmHg 11%
11:00 +51°C° 0 mm 9 m/s 745 mmHg 10%
12:00 +54°C° 0 mm 9 m/s 745 mmHg 8%
13:00 +54°C° 0 mm 9 m/s 744 mmHg 8%
14:00 +54°C° 0 mm 9 m/s 744 mmHg 7%
15:00 +54°C° 0 mm 9 m/s 743 mmHg 7%
16:00 +53°C° 0 mm 9 m/s 743 mmHg 7%
17:00 +53°C° 0 mm 9 m/s 743 mmHg 7%
18:00 +51°C° 0 mm 9 m/s 743 mmHg 8%
19:00 +49°C° 0 mm 8 m/s 743 mmHg 9%
20:00 +46°C° 0 mm 7 m/s 743 mmHg 10%
21:00 +44°C° 0 mm 7 m/s 743 mmHg 11%
22:00 +43°C° 0 mm 7 m/s 743 mmHg 12%
23:00 +41°C° 0 mm 7 m/s 743 mmHg 13%

Poimâine, 8 August, Sâmbătă

Timp Temperatura Precipitaţii Vânt Presiune Umiditate
00:00 +40°C° 0 mm 7 m/s 743 mmHg 13%
01:00 +39°C° 0 mm 7 m/s 743 mmHg 15%
02:00 +39°C° 0 mm 7 m/s 743 mmHg 16%
03:00 +38°C° 0 mm 7 m/s 742 mmHg 18%
04:00 +36°C° 0 mm 7 m/s 743 mmHg 18%
05:00 +37°C° 0 mm 8 m/s 743 mmHg 19%
06:00 +37°C° 0 mm 8 m/s 743 mmHg 20%
07:00 +39°C° 0 mm 9 m/s 743 mmHg 18%
08:00 +43°C° 0 mm 9 m/s 744 mmHg 15%
09:00 +47°C° 0 mm 10 m/s 744 mmHg 12%
10:00 +48°C° 0 mm 10 m/s 744 mmHg 11%
11:00 +50°C° 0 mm 10 m/s 743 mmHg 9%
12:00 +53°C° 0 mm 11 m/s 743 mmHg 7%
13:00 +53°C° 0 mm 11 m/s 743 mmHg 7%
14:00 +54°C° 0 mm 11 m/s 742 mmHg 7%
15:00 +54°C° 0 mm 10 m/s 741 mmHg 6%
16:00 +53°C° 0 mm 10 m/s 741 mmHg 7%
17:00 +51°C° 0 mm 9 m/s 741 mmHg 7%
18:00 +50°C° 0 mm 8 m/s 741 mmHg 7%
19:00 +48°C° 0 mm 8 m/s 741 mmHg 9%
20:00 +45°C° 0 mm 7 m/s 742 mmHg 10%
21:00 +42°C° 0 mm 6 m/s 742 mmHg 12%
22:00 +41°C° 0 mm 6 m/s 742 mmHg 12%
23:00 +40°C° 0 mm 6 m/s 742 mmHg 13%

9 August, Duminică

Timp Temperatura Precipitaţii Vânt Presiune Umiditate
00:00 +39°C° 0 mm 6 m/s 742 mmHg 14%
01:00 +39°C° 0 mm 5 m/s 742 mmHg 14%
02:00 +37°C° 0 mm 5 m/s 741 mmHg 14%
03:00 +36°C° 0 mm 4 m/s 741 mmHg 15%
04:00 +36°C° 0 mm 5 m/s 742 mmHg 16%
05:00 +35°C° 0 mm 6 m/s 742 mmHg 17%
06:00 +35°C° 0 mm 7 m/s 743 mmHg 18%
07:00 +38°C° 0 mm 8 m/s 743 mmHg 19%
08:00 +40°C° 0 mm 8 m/s 744 mmHg 20%
09:00 +43°C° 0 mm 9 m/s 744 mmHg 20%
10:00 +45°C° 0 mm 9 m/s 744 mmHg 17%
11:00 +48°C° 0 mm 9 m/s 744 mmHg 14%
12:00 +50°C° 0 mm 8 m/s 744 mmHg 11%
13:00 +51°C° 0 mm 8 m/s 744 mmHg 10%
14:00 +52°C° 0 mm 8 m/s 743 mmHg 9%
15:00 +52°C° 0 mm 8 m/s 743 mmHg 8%
16:00 +51°C° 0 mm 7 m/s 743 mmHg 8%
17:00 +50°C° 0 mm 7 m/s 743 mmHg 8%
18:00 +48°C° 0 mm 6 m/s 743 mmHg 8%
19:00 +46°C° 0 mm 5 m/s 743 mmHg 10%
20:00 +43°C° 0 mm 5 m/s 744 mmHg 11%
21:00 +41°C° 0 mm 4 m/s 744 mmHg 12%
22:00 +40°C° 0 mm 4 m/s 744 mmHg 12%
23:00 +38°C° 0 mm 4 m/s 744 mmHg 13%

10 August, Luni

Timp Temperatura Precipitaţii Vânt Presiune Umiditate
00:00 +37°C° 0 mm 4 m/s 744 mmHg 14%
01:00 +37°C° 0 mm 4 m/s 744 mmHg 16%
02:00 +36°C° 0 mm 4 m/s 744 mmHg 18%
03:00 +35°C° 0 mm 4 m/s 744 mmHg 21%
04:00 +34°C° 0 mm 4 m/s 745 mmHg 23%
05:00 +34°C° 0 mm 4 m/s 745 mmHg 24%
06:00 +33°C° 0 mm 4 m/s 745 mmHg 26%
07:00 +36°C° 0 mm 5 m/s 746 mmHg 24%
08:00 +39°C° 0 mm 6 m/s 746 mmHg 22%
09:00 +43°C° 0 mm 7 m/s 746 mmHg 19%
10:00 +44°C° 0 mm 7 m/s 746 mmHg 17%
11:00 +46°C° 0 mm 7 m/s 746 mmHg 15%
12:00 +49°C° 0 mm 7 m/s 746 mmHg 13%
13:00 +49°C° 0 mm 7 m/s 746 mmHg 12%
14:00 +50°C° 0 mm 7 m/s 745 mmHg 11%
15:00 +50°C° 0 mm 7 m/s 745 mmHg 10%
16:00 +49°C° 0 mm 7 m/s 745 mmHg 11%
17:00 +47°C° 0 mm 7 m/s 745 mmHg 11%
18:00 +46°C° 0 mm 6 m/s 745 mmHg 12%
19:00 +43°C° 0 mm 5 m/s 745 mmHg 14%
20:00 +40°C° 0 mm 4 m/s 745 mmHg 17%
21:00 +37°C° 0 mm 4 m/s 746 mmHg 19%
22:00 +36°C° 0 mm 3 m/s 746 mmHg 20%
23:00 +36°C° 0 mm 3 m/s 746 mmHg 20%

11 August, Marţi

Timp Temperatura Precipitaţii Vânt Presiune Umiditate
00:00 +35°C° 0 mm 3 m/s 745 mmHg 21%
01:00 +35°C° 0 mm 3 m/s 745 mmHg 22%
02:00 +34°C° 0 mm 4 m/s 745 mmHg 23%
03:00 +34°C° 0 mm 4 m/s 745 mmHg 24%
04:00 +34°C° 0 mm 5 m/s 746 mmHg 26%
05:00 +34°C° 0 mm 5 m/s 746 mmHg 28%
06:00 +33°C° 0 mm 6 m/s 746 mmHg 30%
07:00 +35°C° 0 mm 7 m/s 746 mmHg 30%
08:00 +38°C° 0 mm 8 m/s 747 mmHg 29%
09:00 +40°C° 0 mm 9 m/s 747 mmHg 28%
10:00 +43°C° 0 mm 9 m/s 747 mmHg 24%
11:00 +45°C° 0 mm 9 m/s 746 mmHg 19%
12:00 +48°C° 0 mm 9 m/s 746 mmHg 15%
13:00 +48°C° 0 mm 9 m/s 746 mmHg 13%
14:00 +48°C° 0 mm 9 m/s 745 mmHg 12%
15:00 +49°C° 0 mm 9 m/s 745 mmHg 11%
16:00 +48°C° 0 mm 8 m/s 744 mmHg 11%
17:00 +47°C° 0 mm 7 m/s 744 mmHg 11%
18:00 +46°C° 0 mm 6 m/s 744 mmHg 12%
19:00 +42°C° 0 mm 5 m/s 744 mmHg 14%
20:00 +40°C° 0 mm 4 m/s 744 mmHg 16%
21:00 +37°C° 0 mm 4 m/s 745 mmHg 18%
22:00 +36°C° 0 mm 4 m/s 744 mmHg 19%
23:00 +35°C° 0 mm 4 m/s 744 mmHg 19%
Arată mai mult